Showing default

OPS 8480 (TRANSIT 5B-6), 1420

Orbit data source: Space-Track

OPS 8480 (TRANSIT 5B-6), 1420 is a payload satellite owned by USN BuWeps (US) in LEO that was launched on Thu, 24 Jun 1965 UTC via a THOR ABLESTAR launch vehicle from the Air Force Western Test Range (AFWTR). Payload-class satellites include a variety of spacecraft equipped with specific instruments for various scientific and technological missions. These include communications satellites like Starlink; space stations such as the ISS; scientific satellites like the Hubble; Earth observation satellites from companies like Planet Labs, Umbra, and HawkEye 360; GPS; miniature CubeSats for education and research; and military/defense satellites.

Loading next visibility...
Identifier
1420, 1965-048A
Orbit
LEO
Country
Flag of USUS
Related business
Manufacturer
APL
Mission
Spacecraft
Bus & Motor
TRANSIT 5, Unknown motor
Mass
~54 kg wet, ~54 kg dry
Launch date (UTC)
1965-06-24 (61 years ago)
Launch vehicle
THOR ABLESTAR
Launch site
Air Force Western Test Range (AFWTR)
Object type
Payload
Rocket body
Debris
Shape & HBR
Unknown
Radar Cross Section
Large (>1 m²)

Expand to show TLE details & history
Last TLE update: 12 hours ago

TLE from 12 hours ago
0 OPS 8480 (TRANSIT 5B-6)
1  1420U 65048A   26196.18342837  .00000069  00000-0  88974-4 0  9995
2  1420  89.8793 285.8474 0072663 351.5318  34.2748 13.51911019  7243
Epoch: 2026-07-15T04:24Z
TLE epoch observation values (Epoch: 2026-07-15T04:24:08.211Z)
Latitude
26.31133°
Longitude
-73.17033°
Altitude
1,023.917 km
Speed
7.364 km/s
True Right ascension
19h 03m 37s
True Declination
26° 10' 47"
Sunlit
Object was in full shadow at epoch
Visualization orbit readout
Latitude
Unknown
Longitude
Unknown
Altitude
Unknown
Speed
Unknown
Apparent Right ascension
Unknown
Apparent Declination
Unknown
Sunlit
N/A
Visualization observer readout
Local Sidereal Time
04:52:03
Azimuth
Unknown
Elevation
Unknown
Doppler factor
Unknown
Orbital elements
Apogee altitude
1,116.347 km
Perigee altitude
1,008.218 km
Semi-major axis
7,440.42 km
Eccentricity
0.00727
Inclination
89.8793°
RAAN
285.8474°
Arg. of periapsis
351.5318°
True anomaly
34.74726°
Mean anomaly
34.2748°
Eccentric anomaly
34.51067°
Mean motion
3.38179 °/min
Orbital period
106.45 mins
BSTAR
0.000088974
Loading maneuver chart data...
Computing Atmospheric mass density...

Documentation

Showing up to 5 results
|